Camarillo, CA

1:14 PM PDT on May 23, 2017 (GMT -0700)
Camarillo

Weather History for KCMA - May, 2013

Change the Weather History Date:

Saturday, May 25, 2013

  Actual Average Record
Temperature  
Mean Temperature 64 °F 62 °F  
Max Temperature 73 °F 71 °F 81 °F (1968)
Min Temperature 54 °F 53 °F 43 °F (1980)
Degree Days  
Heating Degree Days 1 3  
Month to date heating degree days 4 106  
Since 1 July heating degree days 1424 1926  
Cooling Degree Days 0 0  
Month to date cooling degree days 60 0  
Year to date cooling degree days 87 20  
Growing Degree Days 13 (Base 50)    
Moisture  
Dew Point 50 °F    
Average Humidity 60    
Maximum Humidity 72    
Minimum Humidity 48    
Precipitation  
Precipitation 0.00 in 0.00 in 0.00 in (2017)
Month to date precipitation 0.08 0.30  
Year to date precipitation 2.15 10.92  
Since 1 July precipitation 4.86  
Sea Level Pressure  
Sea Level Pressure 30.02 in    
Wind  
Wind Speed 5 mph (SW)    
Max Wind Speed 18 mph    
Max Gust Speed 23 mph    
Visibility 10 miles    
Events      
T = Trace of Precipitation, MM = Missing Value Source: NWS Daily Summary

Daily Weather History Graph

Daily Weather History Graph

Search for Another Location

Airport or City:

Trip Planner

Search our weather history database for the weather conditions in past years. The results will help you decide how hot, cold, wet, or windy it might be!

Date:

Astronomy

May. 25, 2013 Rise Set
Actual Time 5:48 AM PDT 7:58 PM PDT
Civil Twilight 5:19 AM PDT 8:27 PM PDT
Nautical Twilight 4:45 AM PDT 9:02 PM PDT
Astronomical Twilight 4:07 AM PDT 9:39 PM PDT
Moon 8:52 PM PDT (5/25) 6:19 AM PDT (5/25)
Length of Visible Light 15h 07m
Length of Day
14h 10m
Waxing Gibbous, 99% of the Moon is Illuminated
May 25
Waxing Gibbous
May 31
Last Quarter
Jun 8
New
Jun 16
First Quarter
Jun 23
Full

Hourly Weather History & Observations

Time (PDT) Temp. Dew Point Humidity Pressure Visibility Wind Dir Wind Speed Gust Speed Precip Events Conditions
12:55 AM 59.0 °F 46.9 °F 64% 30.00 in 10.0 mi Calm Calm - N/A   Clear
1:55 AM 57.9 °F 46.9 °F 67% 29.99 in 10.0 mi Calm Calm - N/A   Clear
2:55 AM 57.0 °F 45.0 °F 64% 29.99 in 10.0 mi NE 4.6 mph - N/A   Clear
3:55 AM 55.9 °F 45.0 °F 67% 29.99 in 10.0 mi Calm Calm - N/A   Clear
4:55 AM 54.0 °F 45.0 °F 72% 29.99 in 10.0 mi Calm Calm - N/A   Clear
5:55 AM 55.9 °F 46.0 °F 69% 30.00 in 9.0 mi Calm Calm - N/A   Clear
6:55 AM 57.0 °F 46.9 °F 69% 30.01 in 9.0 mi Calm Calm - N/A   Clear
7:55 AM 64.0 °F 48.9 °F 58% 30.02 in 9.0 mi Calm Calm - N/A   Clear
8:55 AM 66.9 °F 48.9 °F 52% 30.03 in 10.0 mi Calm Calm - N/A   Clear
9:55 AM 69.1 °F 52.0 °F 54% 30.03 in 10.0 mi SW 4.6 mph - N/A   Partly Cloudy
10:55 AM 70.0 °F 54.0 °F 57% 30.04 in 9.0 mi SSW 11.5 mph 16.1 mph N/A   Partly Cloudy
11:55 AM 71.1 °F 53.1 °F 53% 30.04 in 10.0 mi SSW 11.5 mph - N/A   Partly Cloudy
12:55 PM 72.0 °F 54.0 °F 53% 30.05 in 10.0 mi SW 12.7 mph 23.0 mph N/A   Clear
1:55 PM 72.0 °F 54.0 °F 53% 30.05 in 10.0 mi SW 12.7 mph - N/A   Partly Cloudy
2:55 PM 72.0 °F 53.1 °F 51% 30.04 in 10.0 mi SSW 11.5 mph 17.3 mph N/A   Clear
3:55 PM 72.0 °F 53.1 °F 51% 30.03 in 10.0 mi SW 12.7 mph - N/A   Clear
4:55 PM 71.1 °F 52.0 °F 51% 30.02 in 10.0 mi WSW 9.2 mph - N/A   Clear
5:55 PM 69.1 °F 51.1 °F 53% 30.01 in 10.0 mi West 12.7 mph - N/A   Clear
6:55 PM 66.9 °F 48.9 °F 52% 30.01 in 10.0 mi West 9.2 mph - N/A   Clear
7:55 PM 66.0 °F 46.0 °F 48% 30.01 in 10.0 mi WSW 6.9 mph - N/A   Clear
8:55 PM 63.0 °F 53.1 °F 70% 30.01 in 10.0 mi SSW 3.5 mph - N/A   Clear
9:55 PM 62.1 °F 52.0 °F 70% 30.02 in 10.0 mi Calm Calm - N/A   Clear
10:55 PM 63.0 °F 51.1 °F 65% 30.03 in 10.0 mi Calm Calm - N/A   Clear
11:55 PM 60.1 °F 51.1 °F 72% 30.02 in 10.0 mi Calm Calm - N/A   Clear